Location: Peterborough
(44.3091°N, 78.3197°W)
Time: 03:12:44
(UTC-04:00)

Tiros 1 - Pass Details

Date: 10 April 2023
Orbit: 627 x 661 km, 48.4° (Epoch: 09 June)

Event Time Altitude Azimuth Distance (km) Brightness Sun altitude
Rises 04:18:12 0° 287° (WNW) 2,975 - -23.4°
Reaches altitude 10° 04:20:34 10° 292° (WNW) 2,067 - -23.1°
Exits shadow 04:23:15 32° 305° (NW) 1,125 8.2 -22.7°
Maximum altitude 04:25:18 60° 12° (NNE) 757 7.6 -22.4°
Drops below altitude 10° 04:30:02 10° 93° (E) 2,074 10.4 -21.7°
Sets 04:32:25 0° 97° (E) 2,986 11.3 -21.4°
